Location: Vinland
(47.7731°N, 122.6974°W)
Time: 20:43:39
(UTC+00:00)

Vanguard 1 Rocket - Pass Details

Date: 24 March 2023
Orbit: 655 x 4220 km, 34.3° (Epoch: 05 June)

Event Time Altitude Azimuth Distance (km) Brightness Sun altitude
Exits shadow 10:11:27 24° 136° (SE) 2,793 9.7 -34.9°
Drops below altitude 10° 10:14:10 10° 123° (ESE) 3,365 10.3 -34.6°
Sets 10:16:34 0° 115° (ESE) 4,030 10.9 -34.4°
